Total_Precipitation_Accumulation
1.95 1.83 1.29 0.82 0.73 0.57 0.43 0.42 0.40 0.41 0.46 0.67 0.73 0.68 0.76 0.73 0.67 0.66 0.67 0.73 0.84 1.00 1.22 1.42 1.72 2.09 2.32 2.55 2.71 2.89 2.94 2.89 2.88 2.99 2.94 2.68 2.42 2.25 2.00 1.91 1.91 1.79 1.70 1.71
1.63 1.32 0.71 0.55 0.61 0.56 0.46 0.45 0.43 0.42 0.48 0.66 0.70 0.65 0.64 0.64 0.60 0.61 0.66 0.66 0.72 0.79 0.98 1.13 1.40 1.70 1.99 2.25 2.55 2.75 2.90 2.99 2.80 2.63 2.71 2.69 2.56 2.36 2.18 2.06 2.04 1.88 1.77 1.71
1.20 0.86 0.62 0.56 0.56 0.57 0.45 0.42 0.39 0.46 0.56 0.63 0.70 0.70 0.56 0.53 0.51 0.52 0.56 0.56 0.61 0.73 0.83 0.95 1.14 1.36 1.65 1.92 2.21 2.48 2.70 2.87 2.95 2.84 2.88 2.81 2.67 2.41 2.14 1.93 1.90 1.89 1.84 1.77
1.10 0.66 0.62 0.61 0.49 0.46 0.40 0.27 0.33 0.45 0.68 0.71 0.67 0.82 0.50 0.46 0.50 0.52 0.56 0.57 0.58 0.66 0.74 0.85 1.01 1.18 1.37 1.65 1.87 2.09 2.42 2.68 2.83 2.92 2.81 2.66 2.46 2.19 1.90 1.86 1.96 1.97 1.89 1.81
1.05 0.68 0.64 0.65 0.45 0.37 0.35 0.26 0.35 0.49 0.68 0.75 0.53 0.67 0.54 0.45 0.57 0.62 0.63 0.62 0.60 0.62 0.70 0.77 0.89 1.05 1.21 1.45 1.67 1.80 2.01 2.34 2.48 2.45 2.46 2.48 2.34 2.14 2.00 1.93 1.89 1.87 1.79 1.73
0.82 0.63 0.67 0.61 0.44 0.37 0.35 0.43 0.51 0.58 0.85 1.01 0.60 0.68 0.65 0.64 0.71 0.64 0.58 0.57 0.63 0.68 0.74 0.80 0.87 0.98 1.06 1.19 1.42 1.60 1.66 1.87 2.09 2.09 2.13 2.21 2.09 1.97 1.88 1.77 1.74 1.75 1.69 1.59
1.13 0.80 0.60 0.55 0.61 0.48 0.47 0.80 1.13 1.13 1.08 0.79 0.48 0.62 0.73 0.70 0.74 0.73 0.66 0.63 0.70 0.76 0.85 0.92 0.92 1.01 1.06 1.12 1.15 1.34 1.44 1.52 1.70 1.88 1.95 1.94 1.98 1.89 1.80 1.69 1.63 1.63 1.60 1.50
1.13 1.06 0.60 0.49 0.57 0.51 0.43 0.59 0.85 0.86 0.68 0.47 0.39 0.60 0.72 0.71 0.70 0.69 0.69 0.70 0.73 0.85 0.98 1.01 1.02 1.14 1.20 1.21 1.19 1.22 1.27 1.26 1.36 1.57 1.74 1.77 1.83 1.79 1.66 1.55 1.45 1.41 1.37 1.34
0.69 0.72 0.42 0.32 0.33 0.42 0.49 0.45 0.38 0.75 0.66 0.52 0.44 0.46 0.54 0.56 0.61 0.68 0.71 0.70 0.76 0.89 1.03 1.10 1.13 1.17 1.15 1.13 1.19 1.21 1.25 1.20 1.13 1.21 1.34 1.46 1.55 1.56 1.47 1.36 1.27 1.24 1.24 1.24
0.37 0.53 0.43 0.36 0.40 0.46 0.42 0.37 0.54 1.07 1.01 0.69 0.42 0.42 0.63 0.64 0.68 0.68 0.67 0.68 0.77 0.81 0.89 0.99 1.00 0.99 1.04 1.07 1.12 1.19 1.24 1.26 1.17 1.12 1.17 1.25 1.27 1.27 1.24 1.20 1.12 1.05 1.04 1.03
0.27 0.41 0.46 0.51 0.47 0.45 0.42 0.47 0.59 0.79 0.76 0.78 0.50 0.57 0.70 0.66 0.64 0.62 0.60 0.62 0.67 0.68 0.69 0.73 0.74 0.79 0.87 0.93 1.05 1.15 1.26 1.25 1.13 1.14 1.16 1.14 1.14 1.19 1.15 1.08 1.04 1.02 0.97 0.93
0.24 0.37 0.45 0.42 0.28 0.25 0.33 0.37 0.52 0.93 0.74 0.58 0.54 0.58 0.56 0.52 0.51 0.51 0.53 0.57 0.58 0.61 0.61 0.59 0.58 0.59 0.61 0.68 0.78 0.88 1.00 1.01 1.00 1.01 1.09 1.04 1.03 1.12 1.12 1.05 1.00 0.96 0.92 0.83
0.34 0.56 0.72 0.59 0.49 0.40 0.42 0.39 0.54 0.87 1.00 0.73 0.63 0.56 0.46 0.40 0.38 0.41 0.45 0.49 0.51 0.50 0.48 0.44 0.44 0.46 0.46 0.49 0.57 0.69 0.78 0.83 0.88 0.89 0.93 0.93 0.92 0.97 0.98 1.00 0.99 0.94 0.92 0.85
0.52 0.62 0.76 0.83 0.74 0.64 0.56 0.42 0.57 1.09 1.27 0.64 0.44 0.47 0.40 0.37 0.40 0.42 0.41 0.39 0.40 0.39 0.37 0.33 0.31 0.32 0.33 0.37 0.47 0.54 0.59 0.65 0.72 0.73 0.74 0.75 0.79 0.79 0.79 0.79 0.80 0.80 0.81 0.78
0.55 0.81 0.76 0.64 0.53 0.60 0.58 0.46 0.54 0.80 0.67 0.56 0.37 0.35 0.38 0.36 0.38 0.39 0.35 0.31 0.27 0.26 0.25 0.22 0.21 0.22 0.24 0.26 0.32 0.41 0.49 0.56 0.63 0.68 0.70 0.70 0.70 0.70 0.69 0.67 0.64 0.62 0.64 0.67
0.54 0.83 0.84 0.67 0.38 0.41 0.43 0.34 0.40 0.48 0.41 0.37 0.28 0.32 0.28 0.28 0.32 0.33 0.27 0.21 0.18 0.18 0.18 0.16 0.15 0.16 0.18 0.20 0.23 0.29 0.39 0.47 0.52 0.59 0.64 0.66 0.67 0.66 0.64 0.61 0.59 0.55 0.56 0.58
0.51 0.74 0.99 0.74 0.37 0.41 0.44 0.32 0.34 0.39 0.33 0.30 0.33 0.28 0.19 0.22 0.28 0.33 0.26 0.18 0.14 0.14 0.14 0.14 0.15 0.14 0.13 0.15 0.21 0.29 0.35 0.39 0.42 0.46 0.50 0.54 0.57 0.61 0.62 0.61 0.62 0.66 0.68 0.69
0.31 0.54 0.88 0.75 0.57 0.65 0.42 0.26 0.25 0.29 0.27 0.24 0.23 0.18 0.16 0.20 0.21 0.22 0.23 0.20 0.16 0.10 0.09 0.09 0.11 0.12 0.12 0.14 0.19 0.27 0.36 0.43 0.47 0.51 0.52 0.52 0.54 0.61 0.67 0.73 0.79 0.86 0.93 0.94
0.18 0.45 0.80 0.68 0.52 0.33 0.20 0.16 0.20 0.25 0.25 0.18 0.17 0.14 0.12 0.13 0.19 0.21 0.20 0.20 0.18 0.11 0.08 0.07 0.08 0.11 0.14 0.16 0.18 0.24 0.34 0.43 0.50 0.55 0.58 0.60 0.65 0.74 0.82 0.91 0.99 1.02 1.08 1.07
0.14 0.34 0.74 0.66 0.50 0.25 0.16 0.08 0.08 0.17 0.26 0.14 0.12 0.11 0.10 0.11 0.18 0.21 0.22 0.24 0.24 0.19 0.12 0.09 0.09 0.12 0.17 0.21 0.24 0.31 0.41 0.51 0.58 0.63 0.69 0.73 0.75 0.80 0.84 0.86 0.88 0.87 0.87 0.84
0.24 0.41 0.60 0.53 0.46 0.19 0.11 0.05 0.06 0.20 0.25 0.13 0.12 0.13 0.12 0.14 0.16 0.15 0.17 0.22 0.24 0.24 0.23 0.21 0.20 0.22 0.26 0.32 0.40 0.49 0.56 0.67 0.71 0.71 0.76 0.78 0.75 0.76 0.74 0.66 0.60 0.57 0.54 0.50
0.21 0.31 0.34 0.35 0.48 0.29 0.12 0.09 0.16 0.21 0.12 0.10 0.10 0.12 0.13 0.12 0.10 0.10 0.12 0.16 0.17 0.19 0.23 0.27 0.31 0.32 0.33 0.41 0.51 0.58 0.64 0.68 0.65 0.59 0.56 0.54 0.47 0.44 0.43 0.38 0.36 0.35 0.34 0.34
0.22 0.31 0.32 0.33 0.36 0.25 0.17 0.16 0.16 0.13 0.12 0.11 0.12 0.11 0.10 0.11 0.12 0.11 0.10 0.11 0.11 0.11 0.12 0.16 0.21 0.25 0.25 0.27 0.31 0.34 0.34 0.32 0.31 0.30 0.28 0.28 0.27 0.26 0.26 0.25 0.24 0.24 0.25 0.26
0.24 0.21 0.25 0.30 0.28 0.20 0.16 0.13 0.13 0.12 0.13 0.12 0.11 0.09 0.08 0.10 0.10 0.10 0.10 0.10 0.10 0.10 0.10 0.10 0.10 0.12 0.12 0.11 0.12 0.12 0.12 0.13 0.15 0.18 0.19 0.20 0.21 0.20 0.21 0.21 0.19 0.20 0.21 0.22
0.25 0.23 0.26 0.28 0.22 0.16 0.15 0.13 0.14 0.13 0.11 0.11 0.10 0.09 0.09 0.09 0.09 0.09 0.10 0.10 0.10 0.09 0.10 0.10 0.11 0.12 0.14 0.13 0.13 0.13 0.14 0.15 0.16 0.18 0.18 0.20 0.21 0.21 0.21 0.22 0.22 0.24 0.25 0.27
0.19 0.24 0.30 0.31 0.21 0.20 0.18 0.13 0.11 0.10 0.10 0.11 0.11 0.11 0.11 0.11 0.12 0.12 0.12 0.12 0.11 0.11 0.11 0.11 0.12 0.14 0.17 0.16 0.15 0.14 0.16 0.18 0.19 0.18 0.18 0.19 0.20 0.20 0.21 0.21 0.22 0.26 0.27 0.30